SCOUT X-4 R/B, 933

Orbit data source: Space-Track

SCOUT X-4 R/B, 933 is space debris in LEO originally from a launch on Sat, 21 Nov 1964 UTC launched from the Air Force Western Test Range (AFWTR). Debris objects in space refer to the collection of defunct objects orbiting the Earth. Examples of debris include non-operational satellites, rocket bodies, and fragments generated from explosions, collisions, or faulty payload assembly.

Loading next visibility...
Identifier
933, 1964-076C
Orbit
LEO
Last TLE update
20 hours ago
Origin
Manufacturer
ABL
Mission
Spacecraft
Bus & Motor
ALTAIR, Unknown motor
Mass
33 kg wet, 33 kg dry
Launch date (UTC)
1964-11-21 (61 years ago)
Launch vehicle
Unknown
Launch site
Air Force Western Test Range (AFWTR)
Object type
Payload
Rocket body
Debris
Shape & HBR
Cyl, 1.5 m
Radar Cross Section
0.687 m², Medium (>0.1 m² and < 1m²)

Expand to show TLE details & history

TLE from 20 hours ago
0 SCOUT X-4 R/B
1 00933U 64076C   25170.18029755  .00000929  00000-0  30357-3 0  9991
2 00933  81.3369  76.5062 1053633 118.7208 252.3874 12.81622962790063
Epoch: 2025-06-19T04:19Z
TLE epoch observation values (Epoch: 2025-06-19T04:19:37.708Z)
Latitude
0.00002°
Longitude
103.9474°
Altitude
1,657.474 km
Speed
6.897 km/s
True Right ascension
05h 06m 01s
True Declination
0° 00' 00"
Sunlit
Object was in daylight at epoch
Visualization orbit readout
Latitude
-73.43607°
Longitude
72.62278°
Altitude
2,151.081 km
Speed
6.476 km/s
Apparent Right ascension
00h 31m 44s
Apparent Declination
-61° 35' 35"
Sunlit
Object is in daylight
Visualization observer readout
Local Sidereal Time
11:21:38
Azimuth
200.481° SSW
Elevation
-65.831°
Doppler factor
1
Orbital elements
Apogee altitude
2,144.643 km
Perigee altitude
519.859 km
Semi-major axis
7,710.388 km
Eccentricity
0.10536
Inclination
81.3369°
RAAN
76.5062°
Arg. of periapsis
118.7208°
True anomaly
Unknown
Mean anomaly
252.3874°
Eccentric anomaly
Unknown
Mean motion
3.20574 °/min
Orbital period
112.3 mins
BSTAR
0.00030357
Loading maneuver chart data...
Loading SW <> Apogee altitude chart data...
Loading historical data...
Loading historical data...
Loading historical data...
Loading historical data...
Loading historical data...
Loading historical data...
Loading historical data...

SCOUT X-4 R/B Visibility forecast

Observer location: undefined°, undefined°

Span
Click to sort rows by Start time (UTC) header in descending order
Start Az.
Max El. time (UTC)
Max El. Az.
Max El.
End time (UTC)
End Az.
7 mins2025-06-20 05:16:11.449Z3.048° NNE2025-06-20 05:19:11.449Z57.084° ENE37.038°2025-06-20 05:23:11.449Z154.289° SSE
11 mins2025-06-20 17:54:11.449Z165.382° S2025-06-20 18:00:11.449Z100.762° ESE37.708°2025-06-20 18:05:11.449Z24° NE
8 mins2025-06-20 19:49:11.449Z241.406° WSW2025-06-20 19:53:11.449Z278.324° WNW20.457°2025-06-20 19:57:11.449Z328.175° NNW
|